Regional Weather Roundup
Issued by NWS Cleveland, OH

Home | Current Version | Previous Version | Text Only | Print | Product List | Glossary On
Versions: 1 2 3 4 5 6 7 8 9 10 11 12 13 14 15 16 17 18 19 20 21 22 23 24 25 26 27 28 29 30 31 32 33 34 35 36 37 38 39 40 41 42 43 44 45 46 47 48 49 50
000
ASUS41 KCLE 160810
RWRCLE
OHIO REGIONAL WEATHER ROUNDUP
NATIONAL WEATHER SERVICE CLEVELAND, OH
400 AM EDT WED APR 16 2014

NOTE: "FAIR" INDICATES FEW OR NO CLOUDS BELOW 12,000 FEET WITH NO
SIGNIFICANT WEATHER AND/OR OBSTRUCTIONS TO VISIBILITY.

OHZ001>008-015>018-024>027-034-035-043-044-160900-
   NORTHWEST OHIO

CITY           SKY/WX    TMP DP  RH WIND       PRES   REMARKS
DEFIANCE       CLEAR     22  14  71 SW3       30.31R
FINDLAY        CLEAR     26  18  71 CALM      30.29R
TOLEDO EXPRESS CLEAR     22  15  75 CALM      30.29R
TOLEDO EXEC    CLEAR     24  14  65 W5        30.31R WCI  18
LIMA           CLEAR     25  18  74 CALM      30.29R
$$

OHZ009>014-019>023-028>033-038-089-160900-
   NORTHEAST OHIO

CITY           SKY/WX    TMP DP  RH WIND       PRES   REMARKS
CLE-HOPKINS    PTCLDY    29  15  56 NE8       30.30R WCI  21
CLE-LAKEFRONT  CLEAR     30  15  53 N9        30.28R WCI  22
CUY CO. ARPT   NOT AVBL
LORAIN-ELYRIA  CLEAR     30  14  51 NE3       30.28R
ASHTABULA      CLEAR     24  15  68 CALM      30.27R
AKRON-CANTON   CLEAR     24  19  81 N3        30.25R
WOOSTER        CLEAR     26  15  63 N5        30.27R WCI  20
MANSFIELD      CLEAR     24  15  68 W3        30.26R
YOUNGSTOWN     PTCLDY    22  16  78 CALM      30.25R
$$

OHZ042-051>053-060>062-070>072-077>081-160900-
  SOUTHWEST OHIO

CITY           SKY/WX    TMP DP  RH WIND       PRES   REMARKS
CINC-COVINGTON CLEAR     29  17  61 E5        30.31R WCI  24
CINC-LUNKEN    CLEAR     25  24  96 CALM      30.35R
HAMILTON       CLEAR     26  20  77 CALM      30.34R
DAYTON         CLEAR     28  15  58 CALM      30.31R
WRIGHT-PAT AFB CLEAR     26  16  68 S3        30.31R
DAYTON GENERAL CLEAR     26  17  68 CALM      30.30R
WILMINGTON     CLEAR     25  16  68 CALM      30.30R
$$

OHZ036-037-039>041-045>050-054>059-063>069-073>076-082>088-160900-
  CENTRAL AND SOUTHEAST OHIO

CITY           SKY/WX    TMP DP  RH WIND       PRES   REMARKS
COLUMBUS       CLEAR     29  15  56 N3        30.30R
OSU AIRPORT    CLEAR     25  17  72 W3        30.30R
BOLTON FIELD   CLEAR     23  19  84 CALM      30.30R
RICKENBACK AFB CLEAR     29  12  49 N3        30.30R
NEWARK         CLEAR     25  16  68 CALM      30.29R
MARION         CLEAR     24  15  68 CALM      30.29R
LANCASTER      CLEAR     24  19  81 CALM      30.30R
ZANESVILLE     CLEAR     25  18  74 CALM      30.28R
NEW PHILLY     CLEAR     24  19  81 CALM      30.28R
$$



USA.gov is the U.S. government's official web portal to all federal, state and local government web resources and services.